Year,Month,Day,Hour,Minute,Value (Times are PST for temperature in C)
2011,09,23,00,00,14.70
2011,09,23,00,01,14.60
2011,09,23,00,02,14.70
2011,09,23,00,03,14.70
2011,09,23,00,04,14.70
2011,09,23,00,05,14.70
2011,09,23,00,06,14.70
2011,09,23,00,07,14.70
2011,09,23,00,08,14.70
2011,09,23,00,09,14.70
2011,09,23,00,10,14.70
2011,09,23,00,11,14.70
2011,09,23,00,12,14.70
2011,09,23,00,13,14.70
2011,09,23,00,14,14.70
2011,09,23,00,15,14.70
2011,09,23,00,16,14.70
2011,09,23,00,17,14.70
2011,09,23,00,18,14.70
2011,09,23,00,19,14.70
2011,09,23,00,20,14.80
2011,09,23,00,21,14.80
2011,09,23,00,22,14.80
2011,09,23,00,23,14.80
2011,09,23,00,24,14.80
2011,09,23,00,25,14.80
2011,09,23,00,26,14.80
2011,09,23,00,27,14.80
2011,09,23,00,28,14.80
2011,09,23,00,29,14.80
2011,09,23,00,30,14.80
2011,09,23,00,31,14.80
2011,09,23,00,32,14.80
2011,09,23,00,33,14.80
2011,09,23,00,34,14.80
2011,09,23,00,35,14.80
2011,09,23,00,36,14.80
2011,09,23,00,37,14.80
2011,09,23,00,38,14.80
2011,09,23,00,39,14.80
2011,09,23,00,40,14.80
2011,09,23,00,41,14.80
2011,09,23,00,42,14.80
2011,09,23,00,43,14.90
2011,09,23,00,44,14.80
2011,09,23,00,45,14.90
2011,09,23,00,46,14.90
2011,09,23,00,47,14.90
2011,09,23,00,48,14.90
2011,09,23,00,49,14.90
2011,09,23,00,50,14.90
2011,09,23,00,51,14.90
2011,09,23,00,52,14.90
2011,09,23,00,53,14.90
2011,09,23,00,54,14.90
2011,09,23,00,55,14.90
2011,09,23,00,56,14.90
2011,09,23,00,57,14.90
2011,09,23,00,58,14.90
2011,09,23,00,59,14.90
2011,09,23,01,00,14.90
2011,09,23,01,01,14.90
2011,09,23,01,02,15.00
2011,09,23,01,03,15.00
2011,09,23,01,04,15.00
2011,09,23,01,05,15.00
2011,09,23,01,06,15.00
2011,09,23,01,07,15.00
2011,09,23,01,08,15.00
2011,09,23,01,09,15.00
2011,09,23,01,10,15.00
2011,09,23,01,11,15.00
2011,09,23,01,12,15.00
2011,09,23,01,13,15.00
2011,09,23,01,14,15.00
2011,09,23,01,15,15.00
2011,09,23,01,16,15.00
2011,09,23,01,17,15.00
2011,09,23,01,18,15.00
2011,09,23,01,19,15.00
2011,09,23,01,20,15.00
2011,09,23,01,21,15.00
2011,09,23,01,22,15.00
2011,09,23,01,23,15.00
2011,09,23,01,24,15.00
2011,09,23,01,25,15.00
2011,09,23,01,26,15.00
2011,09,23,01,27,15.00
2011,09,23,01,28,15.00
2011,09,23,01,29,15.00
2011,09,23,01,30,15.00
2011,09,23,01,31,15.00
2011,09,23,01,32,15.00
2011,09,23,01,33,15.00
2011,09,23,01,34,15.00
2011,09,23,01,35,15.00
2011,09,23,01,36,15.00
2011,09,23,01,37,15.00
2011,09,23,01,38,15.00
2011,09,23,01,39,15.00
2011,09,23,01,40,15.00
2011,09,23,01,41,15.00
2011,09,23,01,42,15.00
2011,09,23,01,43,15.00
2011,09,23,01,44,15.00
2011,09,23,01,45,15.00
2011,09,23,01,46,15.00
2011,09,23,01,47,15.00
2011,09,23,01,48,15.00
2011,09,23,01,49,15.00
2011,09,23,01,50,15.00
2011,09,23,01,51,15.00
2011,09,23,01,52,15.00
2011,09,23,01,53,15.00
2011,09,23,01,54,15.00
2011,09,23,01,55,15.00
2011,09,23,01,56,15.00
2011,09,23,01,57,15.00
2011,09,23,01,58,15.00
2011,09,23,01,59,15.00
2011,09,23,02,00,15.00
2011,09,23,02,01,15.00
2011,09,23,02,02,15.00
2011,09,23,02,03,15.00
2011,09,23,02,04,15.00
2011,09,23,02,05,15.00
2011,09,23,02,06,15.00
2011,09,23,02,07,15.00
2011,09,23,02,08,15.00
2011,09,23,02,09,15.00
2011,09,23,02,10,15.00
2011,09,23,02,11,15.00
2011,09,23,02,12,15.00
2011,09,23,02,13,15.00
2011,09,23,02,14,15.00
2011,09,23,02,15,15.00
2011,09,23,02,16,15.00
2011,09,23,02,17,15.00
2011,09,23,02,18,15.00
2011,09,23,02,19,15.00
2011,09,23,02,20,15.00
2011,09,23,02,21,15.10
2011,09,23,02,22,15.10
2011,09,23,02,23,15.10
2011,09,23,02,24,15.10
2011,09,23,02,25,15.10
2011,09,23,02,26,15.10
2011,09,23,02,27,15.10
2011,09,23,02,28,15.10
2011,09,23,02,29,15.20
2011,09,23,02,30,15.20
2011,09,23,02,31,15.20
2011,09,23,02,32,15.20
2011,09,23,02,33,15.20
2011,09,23,02,34,15.20
2011,09,23,02,35,15.20
2011,09,23,02,36,15.20
2011,09,23,02,37,15.20
2011,09,23,02,38,15.20
2011,09,23,02,39,15.30
2011,09,23,02,40,15.30
2011,09,23,02,41,15.30
2011,09,23,02,42,15.30
2011,09,23,02,43,15.30
2011,09,23,02,44,15.30
2011,09,23,02,45,15.30
2011,09,23,02,46,15.30
2011,09,23,02,47,15.30
2011,09,23,02,48,15.30
2011,09,23,02,49,15.30
2011,09,23,02,50,15.30
2011,09,23,02,51,15.30
2011,09,23,02,52,15.30
2011,09,23,02,53,15.30
2011,09,23,02,54,15.40
2011,09,23,02,55,15.40
2011,09,23,02,56,15.40
2011,09,23,02,57,15.40
2011,09,23,02,58,15.40
2011,09,23,02,59,15.40
2011,09,23,03,00,15.40
2011,09,23,03,01,15.40
2011,09,23,03,02,15.40
2011,09,23,03,03,15.40
2011,09,23,03,04,15.40
2011,09,23,03,05,15.40
2011,09,23,03,06,15.40
2011,09,23,03,07,15.30
2011,09,23,03,08,15.40
2011,09,23,03,09,15.40
2011,09,23,03,10,15.30
2011,09,23,03,11,15.30
2011,09,23,03,12,15.30
2011,09,23,03,13,15.40
2011,09,23,03,14,15.40
2011,09,23,03,15,15.40
2011,09,23,03,16,15.40
2011,09,23,03,17,15.40
2011,09,23,03,18,15.40
2011,09,23,03,19,15.40
2011,09,23,03,20,15.40
2011,09,23,03,21,15.40
2011,09,23,03,22,15.40
2011,09,23,03,23,15.40
2011,09,23,03,24,15.40
2011,09,23,03,25,15.30
2011,09,23,03,26,15.30
2011,09,23,03,27,15.30
2011,09,23,03,28,15.30
2011,09,23,03,29,15.30
2011,09,23,03,30,15.20
2011,09,23,03,31,15.20
2011,09,23,03,32,15.20
2011,09,23,03,33,15.20
2011,09,23,03,34,15.20
2011,09,23,03,35,15.20
2011,09,23,03,36,15.10
2011,09,23,03,37,15.10
2011,09,23,03,38,15.10
2011,09,23,03,39,15.10
2011,09,23,03,40,15.00
2011,09,23,03,41,15.00
2011,09,23,03,42,15.00
2011,09,23,03,43,15.00
2011,09,23,03,44,15.00
2011,09,23,03,45,15.00
2011,09,23,03,46,15.00
2011,09,23,03,47,15.00
2011,09,23,03,48,15.00
2011,09,23,03,49,15.00
2011,09,23,03,50,15.00
2011,09,23,03,51,15.00
2011,09,23,03,52,15.00
2011,09,23,03,53,15.00
2011,09,23,03,54,15.00
2011,09,23,03,55,15.00
2011,09,23,03,56,15.00
2011,09,23,03,57,15.00
2011,09,23,03,58,15.00
2011,09,23,03,59,15.00
2011,09,23,04,00,15.00
2011,09,23,04,01,15.00
2011,09,23,04,02,15.00
2011,09,23,04,03,15.00
2011,09,23,04,04,15.00
2011,09,23,04,05,15.00
2011,09,23,04,06,15.00
2011,09,23,04,07,15.00
2011,09,23,04,08,15.00
2011,09,23,04,09,15.00
2011,09,23,04,10,15.00
2011,09,23,04,11,15.00
2011,09,23,04,12,15.00
2011,09,23,04,13,15.00
2011,09,23,04,14,15.00
2011,09,23,04,15,15.00
2011,09,23,04,16,15.00
2011,09,23,04,17,15.00
2011,09,23,04,18,15.00
2011,09,23,04,19,15.00
2011,09,23,04,20,15.00
2011,09,23,04,21,15.00
2011,09,23,04,22,15.00
2011,09,23,04,23,15.00
2011,09,23,04,24,15.00
2011,09,23,04,25,14.90
2011,09,23,04,26,14.90
2011,09,23,04,27,14.90
2011,09,23,04,28,14.80
2011,09,23,04,29,14.80
2011,09,23,04,30,14.80
2011,09,23,04,31,14.80
2011,09,23,04,32,14.80
2011,09,23,04,33,14.70
2011,09,23,04,34,14.70
2011,09,23,04,35,14.70
2011,09,23,04,36,14.70
2011,09,23,04,37,14.70
2011,09,23,04,38,14.60
2011,09,23,04,39,14.60
2011,09,23,04,40,14.60
2011,09,23,04,41,14.60
2011,09,23,04,42,14.60
2011,09,23,04,43,14.50
2011,09,23,04,44,14.50
2011,09,23,04,45,14.40
2011,09,23,04,46,14.40
2011,09,23,04,47,14.40
2011,09,23,04,48,14.40
2011,09,23,04,49,14.40
2011,09,23,04,50,14.30
2011,09,23,04,51,14.30
2011,09,23,04,52,14.30
2011,09,23,04,53,14.30
2011,09,23,04,54,14.20
2011,09,23,04,55,14.20
2011,09,23,04,56,14.20
2011,09,23,04,57,14.20
2011,09,23,04,58,14.20
2011,09,23,04,59,14.20
2011,09,23,05,00,14.10
2011,09,23,05,01,14.10
2011,09,23,05,02,14.10
2011,09,23,05,03,14.10
2011,09,23,05,04,14.10
2011,09,23,05,05,14.00
2011,09,23,05,06,14.00
2011,09,23,05,07,14.00
2011,09,23,05,08,13.90
2011,09,23,05,09,13.90
2011,09,23,05,10,13.90
2011,09,23,05,11,13.90
2011,09,23,05,12,13.90
2011,09,23,05,13,13.90
2011,09,23,05,14,13.90
2011,09,23,05,15,13.80
2011,09,23,05,16,13.80
2011,09,23,05,17,13.80
2011,09,23,05,18,13.80
2011,09,23,05,19,13.80
2011,09,23,05,20,13.80
2011,09,23,05,21,13.80
2011,09,23,05,22,13.70
2011,09,23,05,23,13.70
2011,09,23,05,24,13.70
2011,09,23,05,25,13.70
2011,09,23,05,26,13.70
2011,09,23,05,27,13.70
2011,09,23,05,28,13.70
2011,09,23,05,29,13.60
2011,09,23,05,30,13.60
2011,09,23,05,31,13.60
2011,09,23,05,32,13.60
2011,09,23,05,33,13.60
2011,09,23,05,34,13.50
2011,09,23,05,35,13.50
2011,09,23,05,36,13.50
2011,09,23,05,37,13.50
2011,09,23,05,38,13.40
2011,09,23,05,39,13.40
2011,09,23,05,40,13.40
2011,09,23,05,41,13.40
2011,09,23,05,42,13.40
2011,09,23,05,43,13.40
2011,09,23,05,44,13.30
2011,09,23,05,45,13.30
2011,09,23,05,46,13.30
2011,09,23,05,47,13.30
2011,09,23,05,48,13.30
2011,09,23,05,49,13.30
2011,09,23,05,50,13.30
2011,09,23,05,51,13.30
2011,09,23,05,52,13.30
2011,09,23,05,53,13.20
2011,09,23,05,54,13.20
2011,09,23,05,55,13.20
2011,09,23,05,56,13.20
2011,09,23,05,57,13.20
2011,09,23,05,58,13.20
2011,09,23,05,59,13.20
2011,09,23,06,00,13.20
2011,09,23,06,01,13.20
2011,09,23,06,02,13.10
2011,09,23,06,03,13.10
2011,09,23,06,04,13.10
2011,09,23,06,05,13.10
2011,09,23,06,06,13.10
2011,09,23,06,07,13.10
2011,09,23,06,08,13.10
2011,09,23,06,09,13.10
2011,09,23,06,10,13.00
2011,09,23,06,11,13.00
2011,09,23,06,12,13.00
2011,09,23,06,13,13.00
2011,09,23,06,14,12.90
2011,09,23,06,15,12.90
2011,09,23,06,16,12.90
2011,09,23,06,17,12.90
2011,09,23,06,18,12.90
2011,09,23,06,19,12.90
2011,09,23,06,20,12.90
2011,09,23,06,21,12.90
2011,09,23,06,22,12.90
2011,09,23,06,23,12.90
2011,09,23,06,24,12.90
2011,09,23,06,25,12.90
2011,09,23,06,26,12.90
2011,09,23,06,27,12.90
2011,09,23,06,28,12.80
2011,09,23,06,29,12.80
2011,09,23,06,30,12.80
2011,09,23,06,31,12.80
2011,09,23,06,32,12.80
2011,09,23,06,33,12.80
2011,09,23,06,34,12.80
2011,09,23,06,35,12.80
2011,09,23,06,36,12.80
2011,09,23,06,37,12.80
2011,09,23,06,38,12.80
2011,09,23,06,39,12.80
2011,09,23,06,40,12.80
2011,09,23,06,41,12.80
2011,09,23,06,42,12.80
2011,09,23,06,43,12.80
2011,09,23,06,44,12.80
2011,09,23,06,45,12.80
2011,09,23,06,46,12.80
2011,09,23,06,47,12.80
2011,09,23,06,48,12.80
2011,09,23,06,49,12.80
2011,09,23,06,50,12.80
2011,09,23,06,51,12.70
2011,09,23,06,52,12.70
2011,09,23,06,53,12.70
2011,09,23,06,54,12.70
2011,09,23,06,55,12.70
2011,09,23,06,56,12.70
2011,09,23,06,57,12.70
2011,09,23,06,58,12.70
2011,09,23,06,59,12.70
2011,09,23,07,00,12.70
2011,09,23,07,01,12.70
2011,09,23,07,02,12.70
2011,09,23,07,03,12.70
2011,09,23,07,04,12.70
2011,09,23,07,05,12.70
2011,09,23,07,06,12.70
2011,09,23,07,07,12.70
2011,09,23,07,08,12.70
2011,09,23,07,09,12.70
2011,09,23,07,10,12.70
2011,09,23,07,11,12.70
2011,09,23,07,12,12.70
2011,09,23,07,13,12.70
2011,09,23,07,14,12.70
2011,09,23,07,15,12.70
2011,09,23,07,16,12.70
2011,09,23,07,17,12.70
2011,09,23,07,18,12.70
2011,09,23,07,19,12.70
2011,09,23,07,20,12.70
2011,09,23,07,21,12.70
2011,09,23,07,22,12.70
2011,09,23,07,23,12.70
2011,09,23,07,24,12.70
2011,09,23,07,25,12.70
2011,09,23,07,26,12.70
2011,09,23,07,27,12.70
2011,09,23,07,28,12.70
2011,09,23,07,29,12.70
2011,09,23,07,30,12.70
2011,09,23,07,31,12.70
2011,09,23,07,32,12.70
2011,09,23,07,33,12.70
2011,09,23,07,34,12.70
2011,09,23,07,35,12.70
2011,09,23,07,36,12.70
2011,09,23,07,37,12.70
2011,09,23,07,38,12.70
2011,09,23,07,39,12.70
2011,09,23,07,40,12.70
2011,09,23,07,41,12.70
2011,09,23,07,42,12.70
2011,09,23,07,43,12.70
2011,09,23,07,44,12.70
2011,09,23,07,45,12.70
2011,09,23,07,46,12.80
2011,09,23,07,47,12.80
2011,09,23,07,48,12.80
2011,09,23,07,49,12.80
2011,09,23,07,50,12.80
2011,09,23,07,51,12.80
2011,09,23,07,52,12.80
2011,09,23,07,53,12.80
2011,09,23,07,54,12.80
2011,09,23,07,55,12.80
2011,09,23,07,56,12.80
2011,09,23,07,57,12.80
2011,09,23,07,58,12.90
2011,09,23,07,59,12.90
2011,09,23,08,00,12.90
2011,09,23,08,01,12.90
2011,09,23,08,02,12.90
2011,09,23,08,03,12.90
2011,09,23,08,04,13.00
2011,09,23,08,05,13.00
2011,09,23,08,06,13.00
2011,09,23,08,07,13.10
2011,09,23,08,08,13.10
2011,09,23,08,09,13.20
2011,09,23,08,10,13.20
2011,09,23,08,11,13.30
2011,09,23,08,12,13.30
2011,09,23,08,13,13.40
2011,09,23,08,14,13.40
2011,09,23,08,15,13.40
2011,09,23,08,16,13.40
2011,09,23,08,17,13.50
2011,09,23,08,18,13.50
2011,09,23,08,19,13.60
2011,09,23,08,20,13.60
2011,09,23,08,21,13.60
2011,09,23,08,22,13.60
2011,09,23,08,23,13.70
2011,09,23,08,24,13.70
2011,09,23,08,25,13.70
2011,09,23,08,26,13.80
2011,09,23,08,27,13.80
2011,09,23,08,28,13.80
2011,09,23,08,29,13.80
2011,09,23,08,30,13.90
2011,09,23,08,31,13.90
2011,09,23,08,32,13.90
2011,09,23,08,33,14.00
2011,09,23,08,34,14.00
2011,09,23,08,35,14.10
2011,09,23,08,36,14.10
2011,09,23,08,37,14.10
2011,09,23,08,38,14.20
2011,09,23,08,39,14.20
2011,09,23,08,40,14.30
2011,09,23,08,41,14.30
2011,09,23,08,42,14.40
2011,09,23,08,43,14.50
2011,09,23,08,44,14.60
2011,09,23,08,45,14.70
2011,09,23,08,46,14.70
2011,09,23,08,47,14.80
2011,09,23,08,48,14.80
2011,09,23,08,49,15.00
2011,09,23,08,50,15.00
2011,09,23,08,51,15.00
2011,09,23,08,52,15.00
2011,09,23,08,53,15.00
2011,09,23,08,54,15.00
2011,09,23,08,55,15.00
2011,09,23,08,56,15.00
2011,09,23,08,57,15.00
2011,09,23,08,58,15.00
2011,09,23,08,59,15.00
2011,09,23,09,00,15.00
2011,09,23,09,01,15.00
2011,09,23,09,02,15.00
2011,09,23,09,03,15.00
2011,09,23,09,04,15.00
2011,09,23,09,05,15.00
2011,09,23,09,06,15.00
2011,09,23,09,07,15.00
2011,09,23,09,08,15.00
2011,09,23,09,09,15.00
2011,09,23,09,10,15.00
2011,09,23,09,11,15.00
2011,09,23,09,12,15.00
2011,09,23,09,13,15.00
2011,09,23,09,14,15.00
2011,09,23,09,15,15.00
2011,09,23,09,16,15.00
2011,09,23,09,17,15.00
2011,09,23,09,18,15.00
2011,09,23,09,19,15.00
2011,09,23,09,20,15.00
2011,09,23,09,21,15.00
2011,09,23,09,22,15.00
2011,09,23,09,23,15.00
2011,09,23,09,24,15.00
2011,09,23,09,25,15.00
2011,09,23,09,26,15.00
2011,09,23,09,27,15.00
2011,09,23,09,28,15.00
2011,09,23,09,29,15.00
2011,09,23,09,30,15.00
2011,09,23,09,31,15.00
2011,09,23,09,32,15.00
2011,09,23,09,33,15.00
2011,09,23,09,34,15.00
2011,09,23,09,35,15.00
2011,09,23,09,36,15.00
2011,09,23,09,37,15.00
2011,09,23,09,38,15.00
2011,09,23,09,39,15.10
2011,09,23,09,40,15.10
2011,09,23,09,41,15.10
2011,09,23,09,42,15.10
2011,09,23,09,43,15.10
2011,09,23,09,44,15.10
2011,09,23,09,45,15.20
2011,09,23,09,46,15.20
2011,09,23,09,47,15.20
2011,09,23,09,48,15.20
2011,09,23,09,49,15.20
2011,09,23,09,50,15.20
2011,09,23,09,51,15.20
2011,09,23,09,52,15.20
2011,09,23,09,53,15.30
2011,09,23,09,54,15.30
2011,09,23,09,55,15.30
2011,09,23,09,56,15.30
2011,09,23,09,57,15.30
2011,09,23,09,58,15.30
2011,09,23,09,59,15.30
2011,09,23,10,00,15.30
2011,09,23,10,01,15.30
2011,09,23,10,02,15.30
2011,09,23,10,03,15.30
2011,09,23,10,04,15.30
2011,09,23,10,05,15.30
2011,09,23,10,06,15.40
2011,09,23,10,07,15.40
2011,09,23,10,08,15.40
2011,09,23,10,09,15.40
2011,09,23,10,10,15.40
2011,09,23,10,11,15.50
2011,09,23,10,12,15.50
2011,09,23,10,13,15.50
2011,09,23,10,14,15.60
2011,09,23,10,15,15.60
2011,09,23,10,16,15.60
2011,09,23,10,17,15.60
2011,09,23,10,18,15.60
2011,09,23,10,19,15.70
2011,09,23,10,20,15.70
2011,09,23,10,21,15.70
2011,09,23,10,22,15.70
2011,09,23,10,23,15.80
2011,09,23,10,24,15.80
2011,09,23,10,25,15.80
2011,09,23,10,26,15.80
2011,09,23,10,27,15.80
2011,09,23,10,28,15.80
2011,09,23,10,29,15.90
2011,09,23,10,30,15.90
2011,09,23,10,31,15.90
2011,09,23,10,32,16.00
2011,09,23,10,33,16.00
2011,09,23,10,34,16.00
2011,09,23,10,35,16.10
2011,09,23,10,36,16.10
2011,09,23,10,37,16.10
2011,09,23,10,38,16.20
2011,09,23,10,39,16.20
2011,09,23,10,40,16.20
2011,09,23,10,41,16.30
2011,09,23,10,42,16.30
2011,09,23,10,43,16.30
2011,09,23,10,44,16.40
2011,09,23,10,45,16.40
2011,09,23,10,46,16.50
2011,09,23,10,47,16.50
2011,09,23,10,48,16.60
2011,09,23,10,49,16.60
2011,09,23,10,50,16.70
2011,09,23,10,51,16.70
2011,09,23,10,52,16.80
2011,09,23,10,53,16.80
2011,09,23,10,54,16.90
2011,09,23,10,55,16.90
2011,09,23,10,56,17.00
2011,09,23,10,57,17.10
2011,09,23,10,58,17.20
2011,09,23,10,59,17.20
2011,09,23,11,00,17.30
2011,09,23,11,01,17.30
2011,09,23,11,02,17.40
2011,09,23,11,03,17.50
2011,09,23,11,04,17.50
2011,09,23,11,05,17.60
2011,09,23,11,06,17.60
2011,09,23,11,07,17.70
2011,09,23,11,08,17.80
2011,09,23,11,09,17.90
2011,09,23,11,10,18.00
2011,09,23,11,11,18.20
2011,09,23,11,12,18.20
2011,09,23,11,13,18.30
2011,09,23,11,14,18.40
2011,09,23,11,15,18.50
2011,09,23,11,16,18.60
2011,09,23,11,17,18.70
2011,09,23,11,18,18.70
2011,09,23,11,19,18.80
2011,09,23,11,20,18.90
2011,09,23,11,21,18.90
2011,09,23,11,22,19.00
2011,09,23,11,23,19.10
2011,09,23,11,24,19.10
2011,09,23,11,25,19.20
2011,09,23,11,26,19.20
2011,09,23,11,27,19.30
2011,09,23,11,28,19.40
2011,09,23,11,29,19.40
2011,09,23,11,30,19.50
2011,09,23,11,31,19.60
2011,09,23,11,32,19.70
2011,09,23,11,33,19.70
2011,09,23,11,34,19.80
2011,09,23,11,35,19.90
2011,09,23,11,36,20.00
2011,09,23,11,37,20.00
2011,09,23,11,38,20.10
2011,09,23,11,39,20.20
2011,09,23,11,40,20.30
2011,09,23,11,41,20.40
2011,09,23,11,42,20.50
2011,09,23,11,43,20.60
2011,09,23,11,44,20.60
2011,09,23,11,45,20.60
2011,09,23,11,46,20.60
2011,09,23,11,47,20.70
2011,09,23,11,48,20.70
2011,09,23,11,49,20.70
2011,09,23,11,50,20.80
2011,09,23,11,51,20.80
2011,09,23,11,52,20.90
2011,09,23,11,53,20.90
2011,09,23,11,54,21.00
2011,09,23,11,55,21.10
2011,09,23,11,56,21.20
2011,09,23,11,57,21.30
2011,09,23,11,58,21.40
2011,09,23,11,59,21.50
2011,09,23,12,00,21.50
2011,09,23,12,01,21.60
2011,09,23,12,02,21.70
2011,09,23,12,03,21.80
2011,09,23,12,04,21.80
2011,09,23,12,05,21.80
2011,09,23,12,06,21.90
2011,09,23,12,07,21.90
2011,09,23,12,08,22.00
2011,09,23,12,09,22.00
2011,09,23,12,10,22.00
2011,09,23,12,11,22.00
2011,09,23,12,12,22.00
2011,09,23,12,13,22.10
2011,09,23,12,14,22.10
2011,09,23,12,15,22.20
2011,09,23,12,16,22.20
2011,09,23,12,17,22.20
2011,09,23,12,18,22.20
2011,09,23,12,19,22.20
2011,09,23,12,20,22.20
2011,09,23,12,21,22.20
2011,09,23,12,22,22.30
2011,09,23,12,23,22.30
2011,09,23,12,24,22.40
2011,09,23,12,25,22.40
2011,09,23,12,26,22.40
2011,09,23,12,27,22.40
2011,09,23,12,28,22.40
2011,09,23,12,29,22.40
2011,09,23,12,30,22.40
2011,09,23,12,31,22.40
2011,09,23,12,32,22.30
2011,09,23,12,33,22.30
2011,09,23,12,34,22.30
2011,09,23,12,35,22.20
2011,09,23,12,36,22.10
2011,09,23,12,37,22.10
2011,09,23,12,38,22.00
2011,09,23,12,39,22.00
2011,09,23,12,40,21.90
2011,09,23,12,41,21.80
2011,09,23,12,42,21.80
2011,09,23,12,43,21.80
2011,09,23,12,44,21.70
2011,09,23,12,45,21.60
2011,09,23,12,46,21.50
2011,09,23,12,47,21.50
2011,09,23,12,48,21.40
2011,09,23,12,49,21.40
2011,09,23,12,50,21.30
2011,09,23,12,51,21.30
2011,09,23,12,52,21.30
2011,09,23,12,53,21.30
2011,09,23,12,54,21.30
2011,09,23,12,55,21.20
2011,09,23,12,56,21.20
2011,09,23,12,57,21.20
2011,09,23,12,58,21.20
2011,09,23,12,59,21.20
2011,09,23,13,00,21.20
2011,09,23,13,01,21.20
2011,09,23,13,02,21.30
2011,09,23,13,03,21.30
2011,09,23,13,04,21.30
2011,09,23,13,05,21.30
2011,09,23,13,06,21.30
2011,09,23,13,07,21.30
2011,09,23,13,08,21.30
2011,09,23,13,09,21.30
2011,09,23,13,10,21.30
2011,09,23,13,11,21.30
2011,09,23,13,12,21.30
2011,09,23,13,13,21.30
2011,09,23,13,14,21.40
2011,09,23,13,15,21.40
2011,09,23,13,16,21.50
2011,09,23,13,17,21.50
2011,09,23,13,18,21.60
2011,09,23,13,19,21.60
2011,09,23,13,20,21.60
2011,09,23,13,21,21.60
2011,09,23,13,22,21.50
2011,09,23,13,23,21.50
2011,09,23,13,24,21.50
2011,09,23,13,25,21.60
2011,09,23,13,26,21.60
2011,09,23,13,27,21.60
2011,09,23,13,28,21.60
2011,09,23,13,29,21.70
2011,09,23,13,30,21.70
2011,09,23,13,31,21.70
2011,09,23,13,32,21.70
2011,09,23,13,33,21.70
2011,09,23,13,34,21.70
2011,09,23,13,35,21.80
2011,09,23,13,36,21.80
2011,09,23,13,37,21.80
2011,09,23,13,38,21.80
2011,09,23,13,39,21.80
2011,09,23,13,40,21.80
2011,09,23,13,41,21.80
2011,09,23,13,42,21.80
2011,09,23,13,43,21.80
2011,09,23,13,44,21.80
2011,09,23,13,45,21.80
2011,09,23,13,46,21.80
2011,09,23,13,47,21.80
2011,09,23,13,48,21.90
2011,09,23,13,49,21.90
2011,09,23,13,50,21.90
2011,09,23,13,51,21.90
2011,09,23,13,52,21.90
2011,09,23,13,53,21.90
2011,09,23,13,54,21.80
2011,09,23,13,55,21.80
2011,09,23,13,56,21.80
2011,09,23,13,57,21.80
2011,09,23,13,58,21.80
2011,09,23,13,59,21.80
2011,09,23,14,00,21.90
2011,09,23,14,01,21.90
2011,09,23,14,02,21.90
2011,09,23,14,03,21.90
2011,09,23,14,04,21.90
2011,09,23,14,05,22.00
2011,09,23,14,06,22.00
2011,09,23,14,07,22.00
2011,09,23,14,08,22.00
2011,09,23,14,09,22.00
2011,09,23,14,10,22.00
2011,09,23,14,11,22.00
2011,09,23,14,12,22.00
2011,09,23,14,13,22.00
2011,09,23,14,14,22.00
2011,09,23,14,15,21.90
2011,09,23,14,16,21.90
2011,09,23,14,17,21.90
2011,09,23,14,18,21.80
2011,09,23,14,19,21.80
2011,09,23,14,20,21.80
2011,09,23,14,21,21.80
2011,09,23,14,22,21.80
2011,09,23,14,23,21.80
2011,09,23,14,24,21.80
2011,09,23,14,25,21.70
2011,09,23,14,26,21.70
2011,09,23,14,27,21.60
2011,09,23,14,28,21.60
2011,09,23,14,29,21.60
2011,09,23,14,30,21.60
2011,09,23,14,31,21.60
2011,09,23,14,32,21.60
2011,09,23,14,33,21.60
2011,09,23,14,34,21.70
2011,09,23,14,35,21.60
2011,09,23,14,36,21.60
2011,09,23,14,37,21.60
2011,09,23,14,38,21.50
2011,09,23,14,39,21.50
2011,09,23,14,40,21.50
2011,09,23,14,41,21.50
2011,09,23,14,42,21.40
2011,09,23,14,43,21.50
2011,09,23,14,44,21.50
2011,09,23,14,45,21.50
2011,09,23,14,46,21.50
2011,09,23,14,47,21.50
2011,09,23,14,48,21.40
2011,09,23,14,49,21.40
2011,09,23,14,50,21.40
2011,09,23,14,51,21.40
2011,09,23,14,52,21.50
2011,09,23,14,53,21.50
2011,09,23,14,54,21.50
2011,09,23,14,55,21.60
2011,09,23,14,56,21.60
2011,09,23,14,57,21.60
2011,09,23,14,58,21.60
2011,09,23,14,59,21.60
2011,09,23,15,00,21.60
2011,09,23,15,01,21.60
2011,09,23,15,02,21.60
2011,09,23,15,03,21.60
2011,09,23,15,04,21.60
2011,09,23,15,05,21.60
2011,09,23,15,06,21.70
2011,09,23,15,07,21.70
2011,09,23,15,08,21.70
2011,09,23,15,09,21.70
2011,09,23,15,10,21.70
2011,09,23,15,11,21.70
2011,09,23,15,12,21.80
2011,09,23,15,13,21.80
2011,09,23,15,14,21.80
2011,09,23,15,15,21.80
2011,09,23,15,16,21.80
2011,09,23,15,17,21.90
2011,09,23,15,18,21.90
2011,09,23,15,19,21.90
2011,09,23,15,20,22.00
2011,09,23,15,21,22.00
2011,09,23,15,22,22.10
2011,09,23,15,23,22.10
2011,09,23,15,24,22.20
2011,09,23,15,25,22.20
2011,09,23,15,26,22.30
2011,09,23,15,27,22.40
2011,09,23,15,28,22.50
2011,09,23,15,29,22.60
2011,09,23,15,30,22.60
2011,09,23,15,31,22.70
2011,09,23,15,32,22.70
2011,09,23,15,33,22.70
2011,09,23,15,34,22.70
2011,09,23,15,35,22.70
2011,09,23,15,36,22.70
2011,09,23,15,37,22.70
2011,09,23,15,38,22.70
2011,09,23,15,39,22.70
2011,09,23,15,40,22.70
2011,09,23,15,41,22.70
2011,09,23,15,42,22.70
2011,09,23,15,43,22.80
2011,09,23,15,44,22.80
2011,09,23,15,45,22.80
2011,09,23,15,46,22.80
2011,09,23,15,47,22.80
2011,09,23,15,48,22.80
2011,09,23,15,49,22.80
2011,09,23,15,50,22.80
2011,09,23,15,51,22.80
2011,09,23,15,52,22.80
2011,09,23,15,53,22.80
2011,09,23,15,54,22.70
2011,09,23,15,55,22.70
2011,09,23,15,56,22.70
2011,09,23,15,57,22.70
2011,09,23,15,58,22.70
2011,09,23,15,59,22.70
2011,09,23,16,00,22.70
2011,09,23,16,01,22.60
2011,09,23,16,02,22.60
2011,09,23,16,03,22.60
2011,09,23,16,04,22.60
2011,09,23,16,05,22.60
2011,09,23,16,06,22.70
2011,09,23,16,07,22.70
2011,09,23,16,08,22.70
2011,09,23,16,09,22.70
2011,09,23,16,10,22.60
2011,09,23,16,11,22.60
2011,09,23,16,12,22.60
2011,09,23,16,13,22.60
2011,09,23,16,14,22.60
2011,09,23,16,15,22.60
2011,09,23,16,16,22.60
2011,09,23,16,17,22.60
2011,09,23,16,18,22.60
2011,09,23,16,19,22.60
2011,09,23,16,20,22.60
2011,09,23,16,21,22.60
2011,09,23,16,22,22.60
2011,09,23,16,23,22.60
2011,09,23,16,24,22.60
2011,09,23,16,25,22.60
2011,09,23,16,26,22.60
2011,09,23,16,27,22.60
2011,09,23,16,28,22.60
2011,09,23,16,29,22.70
2011,09,23,16,30,22.70
2011,09,23,16,31,22.70
2011,09,23,16,32,22.70
2011,09,23,16,33,22.60
2011,09,23,16,34,22.60
2011,09,23,16,35,22.60
2011,09,23,16,36,22.60
2011,09,23,16,37,22.60
2011,09,23,16,38,22.60
2011,09,23,16,39,22.60
2011,09,23,16,40,22.60
2011,09,23,16,41,22.60
2011,09,23,16,42,22.60
2011,09,23,16,43,22.60
2011,09,23,16,44,22.60
2011,09,23,16,45,22.60
2011,09,23,16,46,22.50
2011,09,23,16,47,22.50
2011,09,23,16,48,22.50
2011,09,23,16,49,22.40
2011,09,23,16,50,22.40
2011,09,23,16,51,22.40
2011,09,23,16,52,22.40
2011,09,23,16,53,22.40
2011,09,23,16,54,22.30
2011,09,23,16,55,22.30
2011,09,23,16,56,22.30
2011,09,23,16,57,22.30
2011,09,23,16,58,22.30
2011,09,23,16,59,22.30
2011,09,23,17,00,22.20
2011,09,23,17,01,22.20
2011,09,23,17,02,22.20
2011,09,23,17,03,22.10
2011,09,23,17,04,22.10
2011,09,23,17,05,22.10
2011,09,23,17,06,22.10
2011,09,23,17,07,22.10
2011,09,23,17,08,22.00
2011,09,23,17,09,22.00
2011,09,23,17,10,22.00
2011,09,23,17,11,22.00
2011,09,23,17,12,21.90
2011,09,23,17,13,21.90
2011,09,23,17,14,21.90
2011,09,23,17,15,21.90
2011,09,23,17,16,21.90
2011,09,23,17,17,21.90
2011,09,23,17,18,21.90
2011,09,23,17,19,21.90